[[{"header":{"parameterUnit":"m.s-1","parameterCategory":1,"la1":30.2991,"la2":30.254,"lo1":-89.0895,"lo2":-89.0444,"dy":0.0017,"dx":0.0017,"nx":28,"ny":28,"refTime":"2023-11-06T03:00:00:Z","depth":0,"parameterNumber":2,"parameterNumberName":"U-component_of_WINDS"},"data":[0,0,0,0,0,0,0,0,0,0,0,0,0,0,0,0,0,0,0,0,0,0,0,0,0,0,0,0,0,0,0,0,0,0,0,0,0,0,0,0,0,0,0,0,0,0,0,0,0,0,0,0,0,0,0,0,0,0,0.0866,0.0866,0,0.0905,0.0906,0.0906,0.091,0.0909,0.0909,0.0909,0.0951,0.0952,0.0954,0,0,0,0,0,0,0,0,0,0,0,0,0,0.0796,0.0797,0.0866,0.0866,0.0867,0.0905,0.0906,0.0906,0.091,0.0909,0.0909,0.0908,0.095,0.0952,0.0954,0,0,0,0,0,0,0,0,0,0,0,0,0,0.083,0.0798,0.0866,0.0873,0.0874,0.0905,0.0906,0.0907,0.091,0.0909,0.0909,0.0908,0.095,0.0952,0.0954,0.0981,0,0,0.0961,0.0962,0,0,0,0,0,0,0,0,0.0828,0.0833,0.0872,0.0873,0.0874,0.0902,0.0897,0.0931,0.091,0.0897,0.0909,0.0908,0.0935,0.0939,0.0947,0.0983,0.0985,0.0961,0.0963,0.0964,0.0964,0,0,0,0,0,0,0,0.0826,0.0831,0.0882,0.0872,0.0874,0.0875,0.088,0.0903,0.0919,0.0898,0.0898,0.0903,0.0936,0.0945,0.0948,0.0985,0.0961,0.0963,0.0965,0.0965,0.1046,0.1047,0,0,0,0,0,0,0.0822,0.0829,0.088,0.0883,0.0849,0.0877,0.0882,0.0894,0.0919,0.0922,0.0903,0.0903,0.0942,0.0946,0.095,0.0984,0.0963,0.0966,0.0967,0.1045,0.1046,0.1047,0,0,0,0,0,0,0.082,0.0826,0.0879,0.0856,0.0863,0.0879,0.0892,0.0895,0.0904,0.0923,0.0926,0.091,0.0941,0.0947,0.0973,0.0985,0.0967,0.0969,0.1044,0.1045,0.1046,0.1051,0,0,0,0,0,0,0.0818,0.0826,0.0836,0.0856,0.0864,0.0901,0.0893,0.0896,0.0908,0.0908,0.093,0.0933,0.0941,0.097,0.0975,0.0988,0.097,0.1043,0.1045,0.1046,0.105,0.1052,0.1054,0,0,0,0,0,0.0816,0.0835,0.0836,0.0842,0.0876,0.0901,0.0906,0.0915,0.0909,0.0919,0.0931,0.0932,0.0983,0.0972,0.0979,0.0992,0.1043,0.1044,0.1046,0.1049,0.1052,0.1054,0,0,0,0,0,0,0.0816,0.0838,0.0839,0.0866,0.0882,0.0902,0.0915,0.0917,0.0935,0.0934,0.0945,0.095,0.0976,0.0987,0.0975,0.102,0.1012,0.1015,0.1012,0.1015,0.1017,0.1014,0.0972,0,0,0,0,0,0.0819,0.0837,0.0855,0.0877,0.0885,0.0899,0.091,0.0915,0.0932,0.0939,0.0953,0.097,0.099,0.1003,0.1022,0.1051,0.1057,0.1064,0.1066,0.1068,0.107,0.1088,0.1091,0.1053,0.1053,0.1053,0,0,0.0826,0.084,0.0851,0.0878,0.0891,0.091,0.0904,0.0924,0.0939,0.0943,0.0969,0.0979,0.0999,0.1027,0.1041,0.1037,0.1082,0.107,0.1071,0.1073,0.109,0.1093,0.1097,0.1054,0.1054,0.1053,0,0,0.0847,0.086,0.088,0.0893,0.0912,0.0921,0.0926,0.0947,0.0954,0.098,0.0983,0.1001,0.1035,0.1049,0.1061,0.1089,0.1091,0.1095,0.1107,0.1124,0.1127,0.1129,0.114,0.1144,0.1098,0.1098,0.1098,0,0.0853,0.0881,0.089,0.091,0.0922,0.0926,0.0947,0.096,0.0985,0.0993,0.0989,0.1032,0.1046,0.1078,0.1085,0.1094,0.1101,0.1093,0.1125,0.1128,0.1131,0.1142,0.1146,0.1098,0.1098,0.1098,0.1098,0,0.0888,0.0908,0.0922,0.0946,0.096,0.098,0.0992,0.1005,0.101,0.102,0.1047,0.1064,0.1087,0.1095,0.1099,0.1128,0.1125,0.1123,0.1115,0.1135,0.1145,0.1149,0.1099,0.1099,0.1099,0.1099,0,0,0.0911,0.094,0.0945,0.0956,0.0978,0.0994,0.1015,0.1038,0.1049,0.1067,0.1085,0.1114,0.1113,0.1126,0.1132,0.1147,0.117,0.1143,0.1144,0.1148,0.1203,0.1205,0.121,0.1171,0.1172,0.1172,0.1202,0,0.0936,0.0973,0.0982,0.1014,0.1033,0.1037,0.1056,0.1072,0.1082,0.11,0.1112,0.1132,0.1128,0.1136,0.1151,0.1164,0.1181,0.1162,0.1189,0.119,0.1185,0.1215,0.1217,0.1244,0.1206,0.1207,0.1207,0,0.097,0.0988,0.1022,0.1043,0.1051,0.1067,0.1089,0.1106,0.1125,0.1132,0.1147,0.1152,0.1175,0.1166,0.1199,0.1186,0.1198,0.1206,0.1207,0.1211,0.12,0.122,0.1253,0.1258,0.1213,0.1213,0.1212,0,0.0984,0.1017,0.1042,0.1051,0.1076,0.1088,0.1099,0.1117,0.113,0.1149,0.1158,0.118,0.1192,0.1209,0.1221,0.1213,0.1253,0.1245,0.126,0.126,0.1269,0.1268,0.1305,0.1275,0.1275,0.1275,0.1275,0,0.1011,0.1032,0.1049,0.1064,0.1088,0.1098,0.1122,0.1133,0.1149,0.1168,0.1173,0.119,0.1204,0.1223,0.1232,0.1259,0.1264,0.1271,0.1273,0.1271,0.127,0.1279,0.1278,0.1276,0.1276,0.1276,0.1276,0,0.1031,0.1043,0.107,0.1092,0.1097,0.1114,0.1133,0.1149,0.1159,0.1182,0.1188,0.1205,0.1228,0.1241,0.127,0.1277,0.1307,0.1307,0.13,0.1301,0.1316,0.1315,0.136,0.1367,0.1332,0.1333,0.1333,0,0.1048,0.1064,0.1087,0.11,0.1111,0.1131,0.1144,0.1155,0.1169,0.1193,0.1206,0.1229,0.1249,0.1286,0.1301,0.1324,0.1326,0.1341,0.133,0.1327,0.1327,0.1327,0.1329,0.1343,0.1343,0.1343,0.1343,0,0.1077,0.1082,0.1101,0.1122,0.1138,0.1156,0.1173,0.1183,0.1197,0.1213,0.1237,0.1252,0.1282,0.1306,0.133,0.1342,0.1346,0.1347,0.1352,0.135,0.1345,0.1349,0.1306,0.1346,0.1346,0.1345,0.1345,0.1345,0.1096,0.1111,0.113,0.1151,0.1166,0.1182,0.1198,0.1211,0.123,0.1255,0.1261,0.1286,0.1306,0.1339,0.1352,0.1373,0.137,0.1377,0.1379,0.138,0.1381,0.1341,0.1377,0.1377,0.1377,0.1377,0.1377,0,0.1126,0.1139,0.1158,0.1182,0.1199,0.12,0.122,0.1235,0.1257,0.1275,0.1294,0.1322,0.1345,0.1362,0.1386,0.14,0.1402,0.1406,0.1405,0.1408,0.1382,0.1376,0.1404,0.1404,0.1404,0.1404,0.1404,0.1404,0.1144,0.1169,0.1177,0.121,0.1223,0.1247,0.1259,0.1274,0.1289,0.132,0.1339,0.135,0.1368,0.1394,0.1415,0.142,0.1429,0.1433,0.1438,0.1413,0.141,0.1407,0.1401,0.1434,0.1434,0.1462,0.1463,0.1463]},{"header":{"parameterUnit":"m.s-1","parameterCategory":1,"la1":30.2991,"la2":30.254,"lo1":-89.0895,"lo2":-89.0444,"dy":0.0017,"dx":0.0017,"nx":28,"ny":28,"refTime":"2023-11-06T03:00:00:Z","depth":0,"parameterNumber":3,"parameterNumberName":"V-component_of_WINDS"},"data":[0,0,0,0,0,0,0,0,0,0,0,0,0,0,0,0,0,0,0,0,0,0,0,0,0,0,0,0,0,0,0,0,0,0,0,0,0,0,0,0,0,0,0,0,0,0,0,0,0,0,0,0,0,0,0,0,0,0,0.058,0.058,0,0.0563,0.0563,0.0563,0.055,0.055,0.055,0.0549,0.0533,0.0533,0.0533,0,0,0,0,0,0,0,0,0,0,0,0,0,0.06,0.06,0.058,0.0579,0.0579,0.0564,0.0563,0.0563,0.055,0.055,0.055,0.0549,0.0533,0.0533,0.0532,0,0,0,0,0,0,0,0,0,0,0,0,0,0.0588,0.06,0.058,0.0571,0.057,0.0564,0.0563,0.0563,0.055,0.055,0.0549,0.0549,0.0533,0.0533,0.0532,0.0534,0,0,0.0531,0.0531,0,0,0,0,0,0,0,0,0.0589,0.0588,0.0572,0.0571,0.057,0.0558,0.0564,0.0553,0.055,0.0557,0.0549,0.0549,0.0542,0.0541,0.0538,0.0533,0.0532,0.0531,0.0531,0.0531,0.053,0,0,0,0,0,0,0,0.059,0.0588,0.0573,0.0572,0.0571,0.0568,0.0566,0.0562,0.0551,0.0557,0.0556,0.0554,0.0541,0.0538,0.0538,0.0532,0.0531,0.0531,0.053,0.053,0.0528,0.0529,0,0,0,0,0,0,0.0592,0.0589,0.0574,0.0573,0.0579,0.0568,0.0566,0.0562,0.0551,0.0549,0.0554,0.0553,0.0539,0.0538,0.0537,0.0538,0.0531,0.053,0.053,0.0528,0.0528,0.0529,0,0,0,0,0,0,0.0592,0.0591,0.0574,0.0581,0.0578,0.0568,0.0564,0.0562,0.056,0.0549,0.0547,0.0554,0.0539,0.0538,0.0535,0.0538,0.053,0.0529,0.0528,0.0528,0.0529,0.0541,0,0,0,0,0,0,0.0593,0.0591,0.0591,0.0581,0.0578,0.0572,0.0564,0.0562,0.0559,0.0558,0.0548,0.0546,0.0539,0.0536,0.0534,0.0537,0.0529,0.0528,0.0528,0.0528,0.054,0.0542,0.0543,0,0,0,0,0,0.0594,0.0595,0.0591,0.0589,0.0578,0.0573,0.0571,0.0563,0.0559,0.0559,0.0553,0.0546,0.0537,0.0535,0.0534,0.0536,0.0527,0.0528,0.0528,0.054,0.0541,0.0543,0,0,0,0,0,0,0.0606,0.0594,0.0589,0.0587,0.0581,0.057,0.057,0.0565,0.056,0.0559,0.0549,0.0547,0.0545,0.054,0.0538,0.0537,0.0532,0.0532,0.0541,0.0542,0.0543,0.0545,0.0529,0,0,0,0,0,0.0608,0.0605,0.0594,0.0594,0.0591,0.0581,0.0579,0.0573,0.0566,0.0563,0.0557,0.0551,0.0547,0.0544,0.054,0.0539,0.0537,0.054,0.0542,0.0543,0.0543,0.0543,0.0545,0.053,0.053,0.053,0,0,0.0613,0.0606,0.0605,0.0596,0.059,0.0587,0.0579,0.0576,0.0574,0.0563,0.056,0.0555,0.0548,0.0547,0.0546,0.0542,0.0547,0.0543,0.0544,0.0544,0.0544,0.0545,0.0547,0.0531,0.0531,0.0531,0,0,0.0621,0.0615,0.0614,0.0609,0.0601,0.0595,0.0595,0.0585,0.0581,0.0578,0.057,0.0568,0.0561,0.0556,0.0553,0.056,0.0554,0.0558,0.0565,0.0566,0.0567,0.0568,0.0571,0.0572,0.0559,0.0559,0.0559,0,0.0628,0.0623,0.0614,0.0612,0.0609,0.0599,0.0598,0.0594,0.0585,0.0583,0.0579,0.0571,0.0565,0.0563,0.0565,0.0562,0.0562,0.0559,0.0567,0.0568,0.0569,0.0572,0.0573,0.0559,0.0559,0.0559,0.0559,0,0.0633,0.0629,0.063,0.0622,0.0618,0.0617,0.0608,0.0606,0.06,0.0595,0.0592,0.0585,0.0579,0.0578,0.0573,0.0576,0.0574,0.0569,0.0563,0.0571,0.0574,0.0574,0.056,0.056,0.056,0.056,0,0,0.0647,0.0635,0.0635,0.0632,0.0623,0.062,0.0618,0.0613,0.0611,0.0606,0.0604,0.0599,0.0595,0.0591,0.0585,0.0585,0.0592,0.058,0.058,0.0583,0.0595,0.0599,0.0601,0.0588,0.0588,0.0588,0.0596,0,0.0654,0.065,0.0642,0.0641,0.0638,0.0629,0.0628,0.0623,0.0617,0.0615,0.0609,0.0605,0.0599,0.0597,0.0597,0.0591,0.0594,0.059,0.0587,0.0587,0.0589,0.0602,0.0606,0.0613,0.0597,0.0597,0.0597,0,0.0661,0.0656,0.0655,0.0646,0.0645,0.0644,0.0639,0.0636,0.063,0.0626,0.0622,0.0616,0.0614,0.0609,0.0606,0.0604,0.0602,0.0599,0.0599,0.0599,0.0593,0.0602,0.0616,0.0617,0.0598,0.0598,0.0598,0,0.0672,0.0665,0.0664,0.0661,0.0651,0.0651,0.0647,0.0641,0.0638,0.0634,0.0632,0.0627,0.0625,0.0622,0.0614,0.0611,0.0613,0.0607,0.061,0.0611,0.0611,0.0611,0.0625,0.061,0.061,0.061,0.0609,0,0.068,0.068,0.0669,0.0668,0.0668,0.0659,0.0659,0.0654,0.0649,0.0647,0.0639,0.0638,0.0628,0.0626,0.062,0.0619,0.0618,0.0615,0.0614,0.0616,0.0617,0.0615,0.0614,0.061,0.061,0.061,0.061,0,0.0693,0.0685,0.0683,0.0675,0.0672,0.0673,0.0665,0.0664,0.0659,0.0657,0.0656,0.0647,0.0644,0.0637,0.0631,0.0628,0.0629,0.0626,0.0631,0.063,0.0634,0.0634,0.0648,0.0649,0.0632,0.0632,0.0633,0,0.0699,0.0698,0.069,0.0688,0.0685,0.0682,0.0679,0.0671,0.0669,0.0662,0.0662,0.0659,0.0655,0.0651,0.0644,0.0641,0.0638,0.0643,0.0637,0.064,0.0638,0.0639,0.0639,0.0644,0.0644,0.0645,0.0645,0,0.071,0.0707,0.0703,0.0699,0.0697,0.0693,0.0688,0.0687,0.0678,0.0676,0.0673,0.0671,0.0666,0.0662,0.0658,0.0654,0.0648,0.0647,0.0647,0.065,0.0653,0.0652,0.0635,0.0646,0.0646,0.0646,0.0646,0.0646,0.072,0.072,0.0714,0.071,0.0706,0.0703,0.0702,0.0696,0.0694,0.0689,0.0684,0.0682,0.0676,0.0669,0.0666,0.0664,0.0661,0.0662,0.0662,0.0663,0.0664,0.0653,0.0663,0.0663,0.0663,0.0663,0.0663,0,0.0731,0.0727,0.0725,0.0719,0.0717,0.0711,0.0707,0.0705,0.0703,0.0699,0.0696,0.0692,0.0689,0.0683,0.0679,0.0679,0.0676,0.0678,0.0678,0.0678,0.0667,0.0667,0.0681,0.0681,0.0681,0.0681,0.0681,0.0681,0.0737,0.0736,0.0732,0.073,0.0726,0.0723,0.0721,0.0718,0.0714,0.0711,0.0709,0.0704,0.0699,0.0695,0.0692,0.069,0.069,0.0693,0.069,0.068,0.0678,0.0677,0.0677,0.0693,0.0693,0.0701,0.0701,0.0702]}]]